カタログに戻る

OLYMPUS 1

運用中通信GEO
NORAD 20122·PAYLOAD·🇪🇺 EU

打ち上げ Jul 12, 1989 から Guiana Space Centre

Loading…

TLE

最新Source: Space-Track

元期: Sep 14, 2026, 11:55 UTC

1 20122U 89053A   26257.49715253  .00000053  00000-0  00000-0 0  9998
2 20122  12.1491 333.2850 0011961 337.6682  57.2792  1.01366602121779

AllMySatでOLYMPUS 1をリアルタイム追跡

Download on the App Store